Tracking 19564 objects as of 19-Mar-2019
HD Live streaming from Space Station
objects crossing your sky now

OSCAR 15 (UOSAT 4)

Track OSCAR 15 (UOSAT 4) now!
10-day predictions
OSCAR 15 (UOSAT 4) is classified as:


NORAD ID: 20438
Int'l Code: 1990-005C
Perigee: 788.1 km
Apogee: 802.8 km
Inclination: 98.8 °
Period: 100.6 minutes
Semi major axis: 7166 km
RCS: 0.311 m2 (medium)
Launch date: January 22, 1990
Source: United Kingdom (UK)
Launch site: FRENCH GUIANA (FRGUI)

Uplink (MHz):
Downlink (MHz):
Beacon (MHz): 435.120
Mode: CW
Call sign:
Status: Reentered

aabbcc
Your satellite tracking list
Your tracking list is empty




NASA's NSSDC Master Catalog

Two Line Element Set (TLE):
1 20438U 90005C   19077.49884191 -.00000021  00000-0  92842-5 0  9993
2 20438  98.8028  39.8397 0010250 156.4892 317.1371 14.31031272521719
Source of the keplerian elements: AFSPC